• In Germany
  • List of Countries
  • For 7 days
  • Water Temperature
  • Satellite Maps
  • Weather Map
  • Weather Widgets
  • user-avatar
    Login

    Hourly Weather Fier

    Today, 24 September, Sunday

    Time Temperature Precipitation Wind Pressure Humidity
    00:00 +18°C° 0 mm 1 mps 764 mmHg 67%
    01:00 +18°C° 0 mm 1 mps 764 mmHg 66%
    02:00 +18°C° 0 mm 1 mps 763 mmHg 65%
    03:00 +18°C° 0 mm 1 mps 763 mmHg 65%
    04:00 +16°C° 0 mm 1 mps 763 mmHg 64%
    05:00 +17°C° 0 mm 2 mps 763 mmHg 61%
    06:00 +18°C° 0 mm 2 mps 763 mmHg 57%
    07:00 +19°C° 0 mm 2 mps 763 mmHg 54%
    08:00 +21°C° 0 mm 2 mps 763 mmHg 48%
    09:00 +24°C° 0 mm 2 mps 763 mmHg 41%
    10:00 +26°C° 0 mm 2 mps 763 mmHg 35%
    11:00 +27°C° 0 mm 2 mps 763 mmHg 34%
    12:00 +27°C° 0 mm 2 mps 762 mmHg 33%
    13:00 +28°C° 0 mm 3 mps 762 mmHg 32%
    14:00 +27°C° 0 mm 3 mps 762 mmHg 34%
    15:00 +27°C° 0 mm 3 mps 761 mmHg 36%
    16:00 +26°C° 0 mm 3 mps 761 mmHg 39%
    17:00 +25°C° 0 mm 3 mps 761 mmHg 45%
    18:00 +23°C° 0 mm 2 mps 761 mmHg 52%
    19:00 +20°C° 0 mm 2 mps 762 mmHg 59%
    20:00 +19°C° 0 mm 2 mps 762 mmHg 60%
    21:00 +19°C° 0 mm 2 mps 762 mmHg 61%
    22:00 +19°C° 0 mm 2 mps 762 mmHg 62%
    23:00 +19°C° 0 mm 2 mps 762 mmHg 62%

    Tomorrow, 25 September, Monday

    Time Temperature Precipitation Wind Pressure Humidity
    00:00 +18°C° 0 mm 2 mps 762 mmHg 62%
    01:00 +18°C° 0 mm 3 mps 762 mmHg 62%
    02:00 +18°C° 0.1 mm 3 mps 761 mmHg 62%
    03:00 +18°C° 0.1 mm 3 mps 761 mmHg 61%
    04:00 +18°C° 0.1 mm 2 mps 761 mmHg 61%
    05:00 +19°C° 0.2 mm 3 mps 761 mmHg 60%
    06:00 +19°C° 0.2 mm 3 mps 761 mmHg 59%
    07:00 +20°C° 0.2 mm 3 mps 761 mmHg 58%
    08:00 +21°C° 0.1 mm 2 mps 761 mmHg 55%
    09:00 +24°C° 0.1 mm 2 mps 761 mmHg 51%
    10:00 +25°C° 0.1 mm 2 mps 761 mmHg 48%
    11:00 +26°C° 0.1 mm 2 mps 761 mmHg 46%
    12:00 +26°C° 0.1 mm 2 mps 761 mmHg 44%
    13:00 +27°C° 0.1 mm 3 mps 761 mmHg 43%
    14:00 +26°C° 0.2 mm 3 mps 761 mmHg 46%
    15:00 +25°C° 0.2 mm 3 mps 761 mmHg 50%
    16:00 +25°C° 0.2 mm 3 mps 761 mmHg 54%
    17:00 +22°C° 0.1 mm 3 mps 761 mmHg 59%
    18:00 +21°C° 0.1 mm 3 mps 761 mmHg 65%
    19:00 +20°C° 0.1 mm 3 mps 762 mmHg 71%
    20:00 +20°C° 0 mm 2 mps 762 mmHg 72%
    21:00 +19°C° 0 mm 2 mps 762 mmHg 72%
    22:00 +19°C° 0 mm 2 mps 762 mmHg 73%
    23:00 +18°C° 0.1 mm 2 mps 762 mmHg 73%

    Day after tomorrow, 26 September, Tuesday

    Time Temperature Precipitation Wind Pressure Humidity
    00:00 +18°C° 0.1 mm 2 mps 762 mmHg 74%
    01:00 +18°C° 0.1 mm 2 mps 762 mmHg 74%
    02:00 +18°C° 0.1 mm 2 mps 762 mmHg 73%
    03:00 +18°C° 0.1 mm 2 mps 761 mmHg 73%
    04:00 +17°C° 0.1 mm 2 mps 761 mmHg 73%
    05:00 +18°C° 0.1 mm 2 mps 761 mmHg 70%
    06:00 +19°C° 0.1 mm 2 mps 762 mmHg 67%
    07:00 +19°C° 0.1 mm 2 mps 762 mmHg 64%
    08:00 +21°C° 0 mm 2 mps 762 mmHg 57%
    09:00 +25°C° 0 mm 1 mps 762 mmHg 49%
    10:00 +27°C° 0 mm 1 mps 762 mmHg 42%
    11:00 +27°C° 0.1 mm 1 mps 762 mmHg 41%
    12:00 +27°C° 0.1 mm 2 mps 761 mmHg 40%
    13:00 +28°C° 0.1 mm 3 mps 761 mmHg 39%
    14:00 +27°C° 0.2 mm 3 mps 761 mmHg 43%
    15:00 +27°C° 0.2 mm 3 mps 761 mmHg 46%
    16:00 +26°C° 0.2 mm 3 mps 761 mmHg 50%
    17:00 +24°C° 0.1 mm 3 mps 761 mmHg 56%
    18:00 +23°C° 0.1 mm 2 mps 762 mmHg 62%
    19:00 +20°C° 0.1 mm 2 mps 762 mmHg 69%
    20:00 +20°C° 0 mm 2 mps 762 mmHg 69%
    21:00 +19°C° 0 mm 2 mps 763 mmHg 70%
    22:00 +20°C° 0 mm 1 mps 763 mmHg 70%
    23:00 +20°C° 0 mm 1 mps 763 mmHg 71%

    27 September, Wednesday

    Time Temperature Precipitation Wind Pressure Humidity
    00:00 +20°C° 0 mm 1 mps 763 mmHg 71%
    01:00 +19°C° 0 mm 1 mps 763 mmHg 71%
    02:00 +19°C° 0 mm 1 mps 763 mmHg 71%
    03:00 +19°C° 0 mm 1 mps 763 mmHg 71%
    04:00 +18°C° 0 mm 2 mps 763 mmHg 72%
    05:00 +18°C° 0 mm 2 mps 763 mmHg 69%
    06:00 +19°C° 0 mm 2 mps 763 mmHg 67%
    07:00 +20°C° 0 mm 2 mps 763 mmHg 64%
    08:00 +23°C° 0 mm 1 mps 763 mmHg 58%
    09:00 +25°C° 0 mm 1 mps 763 mmHg 51%
    10:00 +27°C° 0 mm 1 mps 764 mmHg 44%
    11:00 +28°C° 0.1 mm 1 mps 763 mmHg 42%
    12:00 +28°C° 0.1 mm 2 mps 763 mmHg 41%
    13:00 +28°C° 0.1 mm 2 mps 763 mmHg 39%
    14:00 +28°C° 0.1 mm 2 mps 763 mmHg 42%
    15:00 +27°C° 0.1 mm 2 mps 763 mmHg 45%
    16:00 +26°C° 0.1 mm 3 mps 763 mmHg 48%
    17:00 +25°C° 0.1 mm 2 mps 763 mmHg 55%
    18:00 +23°C° 0.1 mm 2 mps 763 mmHg 63%
    19:00 +20°C° 0.1 mm 2 mps 764 mmHg 70%
    20:00 +21°C° 0.1 mm 1 mps 764 mmHg 71%
    21:00 +21°C° 0.1 mm 1 mps 764 mmHg 71%
    22:00 +21°C° 0.1 mm 1 mps 764 mmHg 72%
    23:00 +20°C° 0.1 mm 1 mps 764 mmHg 72%

    28 September, Thursday

    Time Temperature Precipitation Wind Pressure Humidity
    00:00 +20°C° 0.1 mm 1 mps 764 mmHg 72%
    01:00 +20°C° 0.1 mm 1 mps 764 mmHg 72%
    02:00 +20°C° 0 mm 1 mps 764 mmHg 72%
    03:00 +20°C° 0 mm 1 mps 764 mmHg 73%
    04:00 +19°C° 0 mm 1 mps 764 mmHg 74%
    05:00 +19°C° 0.1 mm 2 mps 764 mmHg 72%
    06:00 +20°C° 0.1 mm 2 mps 764 mmHg 70%
    07:00 +20°C° 0.1 mm 2 mps 764 mmHg 68%
    08:00 +23°C° 0 mm 2 mps 764 mmHg 61%
    09:00 +25°C° 0 mm 2 mps 764 mmHg 54%
    10:00 +26°C° 0 mm 1 mps 764 mmHg 47%
    11:00 +27°C° 0.1 mm 2 mps 764 mmHg 46%
    12:00 +28°C° 0.1 mm 2 mps 764 mmHg 44%
    13:00 +28°C° 0.1 mm 2 mps 764 mmHg 43%
    14:00 +27°C° 0.3 mm 2 mps 764 mmHg 46%
    15:00 +27°C° 0.3 mm 3 mps 763 mmHg 49%
    16:00 +26°C° 0.3 mm 3 mps 763 mmHg 52%
    17:00 +25°C° 0.2 mm 3 mps 764 mmHg 57%
    18:00 +24°C° 0.2 mm 3 mps 764 mmHg 62%
    19:00 +22°C° 0.2 mm 3 mps 764 mmHg 67%
    20:00 +21°C° 0.1 mm 3 mps 764 mmHg 68%
    21:00 +21°C° 0.1 mm 2 mps 764 mmHg 69%
    22:00 +20°C° 0.1 mm 2 mps 764 mmHg 70%
    23:00 +20°C° 0 mm 3 mps 764 mmHg 71%

    29 September, Friday

    Time Temperature Precipitation Wind Pressure Humidity
    00:00 +19°C° 0 mm 3 mps 764 mmHg 72%
    01:00 +19°C° 0 mm 3 mps 764 mmHg 73%
    02:00 +19°C° 0 mm 3 mps 764 mmHg 74%
    03:00 +18°C° 0 mm 3 mps 764 mmHg 75%
    04:00 +18°C° 0 mm 3 mps 764 mmHg 76%
    05:00 +18°C° 0 mm 3 mps 764 mmHg 73%
    06:00 +19°C° 0 mm 3 mps 764 mmHg 71%
    07:00 +19°C° 0 mm 3 mps 764 mmHg 69%
    08:00 +21°C° 0 mm 3 mps 764 mmHg 62%
    09:00 +24°C° 0 mm 3 mps 764 mmHg 54%
    10:00 +26°C° 0 mm 3 mps 764 mmHg 47%
    11:00 +26°C° 0 mm 3 mps 764 mmHg 45%
    12:00 +27°C° 0 mm 3 mps 763 mmHg 42%
    13:00 +27°C° 0 mm 3 mps 763 mmHg 40%
    14:00 +27°C° 0 mm 3 mps 763 mmHg 41%
    15:00 +26°C° 0 mm 3 mps 763 mmHg 43%
    16:00 +26°C° 0 mm 3 mps 762 mmHg 44%
    17:00 +24°C° 0 mm 3 mps 763 mmHg 49%
    18:00 +22°C° 0 mm 3 mps 763 mmHg 53%
    19:00 +20°C° 0 mm 3 mps 763 mmHg 57%
    20:00 +19°C° 0 mm 3 mps 763 mmHg 60%
    21:00 +19°C° 0 mm 3 mps 763 mmHg 62%
    22:00 +18°C° 0 mm 3 mps 763 mmHg 65%
    23:00 +18°C° 0 mm 3 mps 763 mmHg 66%
    Show more